Regional Weather Roundup
Issued by NWS Jackson, KY

Home | Current Version | Previous Version | Graphics & Text | Print | Product List | Glossary On
Versions: 1 2 3 4 5 6 7 8 9 10 11 12 13 14 15 16 17 18 19 20 21 22 23 24 25 26 27
000
ASUS43 KJKL 240310
RWRJKL

EAST KENTUCKY HOURLY WEATHER ROUNDUP
NATIONAL WEATHER SERVICE JACKSON KY
1100 PM EDT SAT JUL 23 2016

NOTE: "FAIR" INDICATES FEW OR NO CLOUDS BELOW 12,000 FEET WITH
NO SIGNIFICANT WEATHER AND/OR OBSTRUCTIONS TO VISIBILITY.

* THESE REPORTS ARE NOT UNDER NWS QUALITY CONTROL AND MAY NOT
  REPORT WEATHER SUCH AS PRECIPITATION AND FOG.

KYZ079-080-083-085-087-088-110-112-115-119-120-240400
...EASTERN KENTUCKY...

CITY           SKY/WX    TMP DP  RH WIND       PRES   REMARKS
JACKSON        CLOUDY    80  71  74 CALM      30.05R
LONDON         CLOUDY    80  70  71 CALM      30.04R
SOMERSET*      CLEAR     77  70  78 CALM      30.04R
MONTICELLO*    PTCLDY   N/A N/A N/A W12       30.05R
WILLIAMSBURG*  CLOUDY    77  73  88 CALM      30.05R
MIDDLESBORO*   CLEAR     74  73  96 CALM      30.06R
HARLAN APT*      N/A     73  70  88 CALM      30.08R
PIKE CO APT*     N/A     76  69  78 CALM      30.06R
BIG SANDY APT* PTCLDY    79  72  78 CALM      30.04R
MOREHEAD APT*  CLEAR     81  73  78 CALM      30.04R
ASHLAND*       CLEAR     79  75  89 CALM      29.99R
$$

KYZ035-036-041-042-044-050-067-078-099-240400
...CENTRAL KENTUCKY...

CITY           SKY/WX    TMP DP  RH WIND       PRES   REMARKS
MT STERLING*   PTCLDY    77  75  94 CALM      30.04R
FLEMING/MASON* CLEAR     81  74  78 CALM      30.04R
DANVILLE*      CLEAR     79  73  83 CALM      30.03R
RICHMOND*      CLEAR     79  73  83 CALM      30.02R
LEXINGTON      MOCLDY    82  74  76 W3        30.03R
FRANKFORT      CLEAR     79  73  82 CALM      30.00R
LOUISVILLE     MOCLDY    87  73  62 SW5       29.99R HX  94
LEBANON*         N/A     81  75  83 CALM      30.02R
GLASGOW*       CLEAR     81  72  75 S3        30.01R
BOWLING GREEN  PTCLDY    83  74  74 S3        30.00R
$$

KYZ091>093-OHZ055-061-077-WVZ005-015-034-035-042-240400
...SOUTHERN OHIO/WEST VIRGINIA...

CITY           SKY/WX    TMP DP  RH WIND       PRES   REMARKS
COVINGTON      PTCLDY    77  74  90 CALM      30.02R
COLUMBUS       PTCLDY    81  73  76 CALM      30.00R
DAYTON         PTCLDY    78  73  84 W5        30.03R
WILMINGTON     CLEAR     78  75  90 CALM      30.02R
HUNTINGTON       N/A     78  75  90 CALM      30.01R
CHARLESTON       N/A     77  73  87 CALM      30.02R
PINEVILLE*       N/A     74  70  88 MISG      30.12R
BECKLEY          N/A     74  69  85 CALM      30.12R
BLUEFIELD        N/A     74  66  76 W3        30.15R
LOGAN CO APT*    N/A     81  72  74 CALM      30.06R
$$

VAZ002-007-008-TNZ017-027-036-066-071-240400
...SOUTHWEST VIRGINIA/EAST TENNESSEE...

CITY           SKY/WX    TMP DP  RH WIND       PRES   REMARKS
WISE*            N/A     73  59  60 CALM      30.16R
JONESVILLE*    CLOUDY    77  68  73 CALM      30.09R
ABINGDON*        N/A     76  71  84 CALM      30.10R
BRISTOL        CLEAR     76  68  76 CALM      30.07R
MORRISTOWN*    MOCLDY    75  70  83 S5        30.06R
SEVIERVILLE*   CLEAR     73  66  78 CALM      30.05R
KNOXVILLE      PTCLDY    75  71  87 SW3       30.05R
OAK RIDGE      CLEAR     76  72  87 CALM      30.06R
CROSSVILLE     PTCLDY    72  68  87 CALM      30.09R
NASHVILLE      CLOUDY    79  72  79 S3        30.00R
$$

...KEY TO REMARKS...
VSB - VISIBILITY IN MILES
WCI - WIND CHILL INDEX
HX  - HEAT INDEX

$$




USA.gov is the U.S. government's official web portal to all federal, state and local government web resources and services.